星链-37915(STARLINK-37915)

导读

STARLINK-37915(NORAD编号69722)是美国太空探索技术公司(SpaceX)星链(Starlink)低轨卫星互联网星座的组网卫星之一,属于星链V2迷你系列卫星。该卫星发射于2026年,部署在约550公里高度的近地轨道,核心功能为向全球覆盖区域提供高速、低延迟的宽带互联网接入服务,支持激光星间链路传输,部分批次具备直连手机通信能力,助力填补偏远、海上及航空场景的网络覆盖缺口,当前处于在轨运行状态。截至2026年7月,星链星座已累计部署超7000颗卫星,服务覆盖百余国家。

Basic Information
目录编号:
69722
目录名称:
STARLINK-37915
国际标识:
2026-147U
轨道中心:
EARTH
卫星名称:
星链-37915
卫星全名:
星链-37915(STARLINK-37915)
卫星状态:
在轨 (已飞行68 天)
发射日期:
2026-06-28 UTC
国别 :
美国 (US)
星等 :
--
Orbit Information
数据来源 国际轨道数据 AOE轨道数据
星历时间 2026-09-02T09:55:14+0800
1天前
查看轨道信息
2026-09-03T22:00:00+0800
11小时前
查看轨道信息
半长轴 6843.675km 6843.747km
偏心率 0.0000948 0.0001409
轨道倾角 97.284° 97.285°
近地点辐角 35.397° 108.151°
升交点赤经 281.750° 283.230°
平近点角 324.733° 265.306°
近地点 464.889km 464.645km
远地点 466.187km 466.575km
周期 93.906分钟 93.908分钟
每日圈数 15.33447 15.334226
Detailed Information
固有亮度:
5
最大亮度:
2.5
卫星平台:
Starlink V1.0
覆盖范围:
全球
运营商:
太空探索技术公司
运营商所在国:
美国
制造商(研发单位):
太空探索技术公司
制造商所在国:
美国
使用方式:
暂无
Satellite Introduction
Starlink 计划是 SpaceX 推出的全球卫星互联网项目,通过发射低轨道卫星,为全球尤其是偏远地区提供高速、低延迟的互联网服务。自 2019 年起,Starlink 已部署数千颗卫星,旨在缩小全球数字鸿沟,推动互联网普及。该项目还为军事、航空等行业提供通信支持,带来广泛经济效益。
2D Orbit Map
3D Orbit Map
Orbit Altitude Analysis Chart
Orbit Inclination Analysis Chart
Orbit Comprehensive Analysis Chart
View Comprehensive Chart
Conjunction Data List
Event ID Objects TCA Miss Dist (km) Collision Risk Probability Collision Risk Index (CRI) Action
CDM_260830-194105-338806-972221
2026-08-30T
19:41:31+0000
2.084 km
极远距离
2.493265E-6 低风险 0.43
CDM_260904-043504-812306-972221
2026-09-04T
04:35:29+0000
2.720 km
极远距离
1.416367E-6 低风险 0.38
CDM_260831-000006-634906-972222
2026-08-31T
00:00:14+0000
2.838 km
极远距离
1.38805E-6 低风险 0.38
CDM_260904-110106-534506-972221
2026-09-04T
11:01:17+0000
2.972 km
极远距离
1.35096E-6 低风险 0.38